Location: Alsip
(41.6689°N, 87.7387°W)
Time: 14:05:10
(UTC+00:00)

Cosmos 1538 Rocket - Pass Details

Date: 14 July 2020
Orbit: 753 x 791 km, 74.0° (Epoch: 04 August)

Event Time Altitude Azimuth Distance (km) Brightness Sun altitude
Rises 01:50:13 0° 193° (SSW) 3,268 7.0 -4.9°
Reaches altitude 10° 01:52:36 10° 192° (SSW) 2,340 6.3 -5.2°
Maximum altitude 01:57:55 75° 107° (ESE) 812 4.0 -6.0°
Drops below altitude 10° 02:03:13 10° 23° (NNE) 2,335 6.7 -6.8°
Sets 02:05:36 0° 22° (NNE) 3,260 7.5 -7.2°
